Location: Edinburgh
(55.9500°N, 3.1600°W)
Time: 01:41:15
(UTC+01:00)

N. Korean satellite - Visible Passes

Search period start: 16 October 2019 00:00
Search period end: 26 October 2019 00:00
Orbit: 455 x 508 km, 97.2° (Epoch: 14 October)

Date Brightness Start Highest point End Pass type
(mag) Time Alt. Az. Time Alt. Az. Time Alt. Az.
16 Oct 10.4 05:56:19 10° ENE 05:57:26 11° E 05:58:32 10° ESE visible
17 Oct 7.8 07:02:34 10° NNE 07:06:03 48° E 07:09:34 10° S visible
17 Oct 10.0 19:20:19 10° SW 19:22:26 15° W 19:24:35 10° NW visible
18 Oct 9.0 06:37:31 10° NE 06:40:38 27° E 06:43:47 10° SSE visible
18 Oct 9.1 18:53:58 10° SSW 18:56:55 26° W 18:59:54 10° NW visible
19 Oct 10.0 06:12:47 10° NE 06:15:08 16° E 06:17:30 10° SE visible
20 Oct 10.5 19:39:24 10° W 19:40:08 10° W 19:40:52 10° WNW visible
21 Oct 8.2 06:54:47 10° NNE 06:58:14 41° E 07:01:42 10° S visible
21 Oct 9.8 19:12:04 10° SW 19:14:32 18° W 19:17:01 10° NW visible
22 Oct 9.3 06:29:47 10° NE 06:32:46 24° E 06:35:47 10° SSE visible
22 Oct 8.7 18:45:55 10° SSW 18:49:01 31° W 18:52:11 10° NNW visible
23 Oct 10.1 06:05:11 10° NE 06:07:14 14° E 06:09:17 10° ESE visible
24 Oct 7.2 07:12:09 10° NNE 07:15:45 63° ESE 07:19:24 10° S visible
24 Oct 10.2 19:30:34 10° WSW 19:32:10 13° W 19:33:46 10° WNW visible
25 Oct 8.5 06:46:58 10° NNE 06:50:21 35° E 06:53:45 10° SSE visible
25 Oct 9.5 19:03:51 10° SW 19:06:35 21° W 19:09:22 10° NW visible
